Location: Blue Mountain Vista Observatory
(40.6992°N, 75.9422°W)
Time: 20:47:59
(UTC-04:00)

IDEFIX/ARIANE 42P - Visible Passes

Search period start: 26 March 2017 00:00
Search period end: 05 April 2017 00:00
Orbit: 784 x 804 km, 98.2° (Epoch: 25 March)

Date Brightness Start Highest point End Pass type
(mag) Time Alt. Az. Time Alt. Az. Time Alt. Az.
26 Mar 4.6 06:26:50 10° NNE 06:31:32 34° E 06:36:10 10° SSE visible
27 Mar 5.5 05:59:24 10° NE 06:02:58 18° E 06:06:31 10° SE visible
30 Mar 5.1 06:13:28 10° NE 06:17:45 26° E 06:22:01 10° SSE visible
31 Mar 5.7 05:46:33 10° ENE 05:49:09 14° E 05:51:44 10° ESE visible
03 Apr 5.4 06:00:16 10° NE 06:03:58 19° E 06:07:39 10° SE visible
